TimePST,TemperatureF,Dew PointF,Humidity,Sea Level PressureIn,VisibilityMPH,Wind Direction,Wind SpeedMPH,Gust SpeedMPH,PrecipitationIn,Events,Conditions,WindDirDegrees,DateUTC
12:10 AM,32.0,32.0,100,30.11,5.0,Calm,Calm,-,N/A,,Overcast,0,2012-12-27 08:10:00
12:30 AM,32.0,32.0,100,30.10,10.0,WNW,3.5,-,N/A,,Overcast,290,2012-12-27 08:30:00
12:50 AM,32.0,32.0,100,30.10,10.0,Calm,Calm,-,N/A,,Overcast,0,2012-12-27 08:50:00
1:10 AM,32.0,32.0,100,30.11,10.0,WNW,3.5,-,N/A,,Overcast,290,2012-12-27 09:10:00
1:30 AM,32.0,32.0,100,30.11,10.0,Calm,Calm,-,N/A,,Overcast,0,2012-12-27 09:30:00
1:50 AM,32.0,32.0,100,30.11,10.0,West,3.5,-,N/A,,Overcast,270,2012-12-27 09:50:00
2:10 AM,32.0,32.0,100,30.12,10.0,Calm,Calm,-,N/A,,Overcast,0,2012-12-27 10:10:00
2:30 AM,32.0,32.0,100,30.12,10.0,West,3.5,-,N/A,,Overcast,270,2012-12-27 10:30:00
2:50 AM,32.0,32.0,100,30.12,10.0,West,3.5,-,N/A,,Overcast,260,2012-12-27 10:50:00
3:10 AM,32.0,32.0,100,30.12,10.0,West,4.6,-,N/A,,Overcast,270,2012-12-27 11:10:00
3:30 AM,32.0,32.0,100,30.12,10.0,West,4.6,-,N/A,,Overcast,270,2012-12-27 11:30:00
3:50 AM,32.0,32.0,100,30.13,10.0,West,3.5,-,N/A,,Overcast,270,2012-12-27 11:50:00
4:30 AM,32.0,30.2,93,30.13,10.0,Calm,Calm,-,N/A,,Overcast,0,2012-12-27 12:30:00
4:50 AM,32.0,32.0,100,30.13,10.0,West,3.5,-,N/A,,Overcast,260,2012-12-27 12:50:00
5:10 AM,32.0,30.2,93,30.13,10.0,West,4.6,-,N/A,,Overcast,280,2012-12-27 13:10:00
5:30 AM,32.0,32.0,100,30.14,10.0,WNW,3.5,-,N/A,,Overcast,300,2012-12-27 13:30:00
5:50 AM,32.0,30.2,93,30.14,10.0,Calm,Calm,-,N/A,,Overcast,0,2012-12-27 13:50:00
6:10 AM,32.0,30.2,93,30.15,10.0,NW,3.5,-,N/A,,Overcast,320,2012-12-27 14:10:00
6:30 AM,32.0,30.2,93,30.15,7.0,Calm,Calm,-,N/A,,Overcast,0,2012-12-27 14:30:00
6:50 AM,32.0,30.2,93,30.15,7.0,Calm,Calm,-,N/A,,Overcast,0,2012-12-27 14:50:00
7:10 AM,32.0,30.2,93,30.16,8.0,Calm,Calm,-,N/A,,Overcast,0,2012-12-27 15:10:00
7:30 AM,32.0,28.4,87,30.17,3.0,WNW,3.5,-,N/A,,Overcast,300,2012-12-27 15:30:00
7:50 AM,32.0,30.2,93,30.17,9.0,Calm,Calm,-,N/A,,Overcast,0,2012-12-27 15:50:00
8:10 AM,32.0,30.2,93,30.18,10.0,Calm,Calm,-,N/A,,Overcast,0,2012-12-27 16:10:00
8:30 AM,32.0,30.2,93,30.18,10.0,Calm,Calm,-,N/A,,Overcast,0,2012-12-27 16:30:00
8:50 AM,32.0,28.4,87,30.19,10.0,Calm,Calm,-,N/A,,Overcast,0,2012-12-27 16:50:00
9:10 AM,32.0,28.4,87,30.19,8.0,Calm,Calm,-,N/A,,Overcast,0,2012-12-27 17:10:00
9:30 AM,32.0,28.4,87,30.19,10.0,Calm,Calm,-,N/A,,Overcast,0,2012-12-27 17:30:00
9:50 AM,32.0,28.4,87,30.20,10.0,Calm,Calm,-,N/A,,Overcast,0,2012-12-27 17:50:00
10:10 AM,32.0,28.4,87,30.21,10.0,Calm,Calm,-,N/A,,Overcast,0,2012-12-27 18:10:00
10:30 AM,32.0,28.4,87,30.21,10.0,Calm,Calm,-,N/A,,Overcast,0,2012-12-27 18:30:00
10:50 AM,33.8,28.4,81,30.21,10.0,Calm,Calm,-,N/A,,Mostly Cloudy,0,2012-12-27 18:50:00
11:10 AM,33.8,28.4,81,30.21,10.0,Calm,Calm,-,N/A,,Overcast,0,2012-12-27 19:10:00
11:30 AM,33.8,28.4,81,30.20,10.0,Calm,Calm,-,N/A,,Overcast,0,2012-12-27 19:30:00
12:10 PM,35.6,30.2,81,30.19,10.0,Calm,Calm,-,N/A,,Scattered Clouds,0,2012-12-27 20:10:00
12:30 PM,35.6,30.2,81,30.18,10.0,Calm,Calm,-,N/A,,Scattered Clouds,0,2012-12-27 20:30:00
12:50 PM,35.6,32.0,87,30.18,10.0,Calm,Calm,-,N/A,,Mostly Cloudy,0,2012-12-27 20:50:00
1:10 PM,35.6,32.0,87,30.18,10.0,Calm,Calm,-,N/A,,Overcast,0,2012-12-27 21:10:00
1:30 PM,35.6,32.0,87,30.18,10.0,Calm,Calm,-,N/A,,Mostly Cloudy,0,2012-12-27 21:30:00
1:50 PM,35.6,32.0,87,30.17,10.0,Calm,Calm,-,N/A,,Partly Cloudy,0,2012-12-27 21:50:00
2:10 PM,35.6,32.0,87,30.17,10.0,Calm,Calm,-,N/A,,Scattered Clouds,0,2012-12-27 22:10:00
2:30 PM,35.6,32.0,87,30.17,10.0,Calm,Calm,-,N/A,,Mostly Cloudy,0,2012-12-27 22:30:00
2:50 PM,37.4,32.0,81,30.17,10.0,Calm,Calm,-,N/A,,Scattered Clouds,0,2012-12-27 22:50:00
3:10 PM,35.6,32.0,87,30.18,10.0,Calm,Calm,-,N/A,,Clear,0,2012-12-27 23:10:00
3:30 PM,35.6,32.0,87,30.17,10.0,Calm,Calm,-,N/A,,Clear,0,2012-12-27 23:30:00
4:30 PM,32.0,32.0,100,30.18,9.0,West,4.6,-,N/A,,Clear,280,2012-12-28 00:30:00
4:50 PM,32.0,32.0,100,30.19,10.0,West,4.6,-,N/A,,Clear,280,2012-12-28 00:50:00
5:10 PM,32.0,32.0,100,30.19,4.0,West,3.5,-,N/A,,Clear,270,2012-12-28 01:10:00
5:30 PM,32.0,32.0,100,30.20,8.0,West,3.5,-,N/A,,Clear,270,2012-12-28 01:30:00
6:10 PM,32.0,32.0,100,30.20,1.2,WNW,3.5,-,N/A,,Mostly Cloudy,290,2012-12-28 02:10:00
6:30 PM,32.0,32.0,100,30.20,7.0,Calm,Calm,-,N/A,,Overcast,0,2012-12-28 02:30:00
6:50 PM,30.2,30.2,100,30.20,1.5,Calm,Calm,-,N/A,,Overcast,0,2012-12-28 02:50:00
7:10 PM,32.0,30.2,93,30.20,9.0,Calm,Calm,-,N/A,,Overcast,0,2012-12-28 03:10:00
7:30 PM,32.0,30.2,93,30.21,10.0,West,3.5,-,N/A,,Overcast,280,2012-12-28 03:30:00
7:50 PM,32.0,30.2,93,30.21,9.0,West,3.5,-,N/A,,Overcast,270,2012-12-28 03:50:00
8:10 PM,32.0,30.2,93,30.21,10.0,West,3.5,-,N/A,,Overcast,260,2012-12-28 04:10:00
8:30 PM,30.2,30.2,100,30.21,10.0,West,4.6,-,N/A,,Mostly Cloudy,260,2012-12-28 04:30:00
8:50 PM,30.2,28.4,93,30.21,8.0,West,3.5,-,N/A,,Scattered Clouds,280,2012-12-28 04:50:00
9:10 PM,30.2,28.4,93,30.21,10.0,West,3.5,-,N/A,,Partly Cloudy,280,2012-12-28 05:10:00
9:30 PM,28.4,28.4,100,30.21,10.0,West,4.6,-,N/A,,Partly Cloudy,270,2012-12-28 05:30:00
9:50 PM,28.4,28.4,100,30.21,10.0,West,3.5,-,N/A,,Clear,270,2012-12-28 05:50:00
10:10 PM,28.4,28.4,100,30.21,10.0,West,4.6,-,N/A,,Clear,270,2012-12-28 06:10:00
10:30 PM,28.4,26.6,93,30.22,10.0,West,5.8,-,N/A,,Partly Cloudy,260,2012-12-28 06:30:00
10:50 PM,28.4,26.6,93,30.22,10.0,West,3.5,-,N/A,,Partly Cloudy,260,2012-12-28 06:50:00
11:10 PM,26.6,26.6,100,30.21,9.0,Calm,Calm,-,N/A,,Partly Cloudy,0,2012-12-28 07:10:00
11:30 PM,26.6,26.6,100,30.21,10.0,West,4.6,-,N/A,,Clear,260,2012-12-28 07:30:00
11:50 PM,26.6,24.8,93,30.21,10.0,Calm,Calm,-,N/A,,Clear,0,2012-12-28 07:50:00